Time,TemperatureF,DewpointF,PressureIn,WindDirection,WindDirectionDegrees,WindSpeedMPH,WindSpeedGustMPH,Humidity,HourlyPrecipIn,Conditions,Clouds,dailyrainin,SoftwareType,DateUTC
2013-01-01 00:03:00,56.0,54.0,30.18,SSE,149,0.0,0.0,94,0.00,,,0.00,,2013-01-01 05:03:00,
2013-01-01 00:12:00,56.0,54.0,30.18,SSE,149,0.0,0.0,94,0.00,,,0.00,,2013-01-01 05:12:00,
2013-01-01 00:22:00,57.0,55.0,30.18,SSE,149,0.0,0.0,94,0.00,,,0.00,,2013-01-01 05:22:00,
2013-01-01 00:33:00,57.0,55.0,30.19,SSE,149,0.0,0.0,94,0.00,,,0.00,,2013-01-01 05:33:00,
2013-01-01 00:42:00,57.0,55.0,30.19,SSE,149,0.0,0.0,94,0.00,,,0.00,,2013-01-01 05:42:00,
2013-01-01 00:53:00,58.0,56.0,30.18,SSE,149,0.0,0.0,94,0.00,,,0.00,,2013-01-01 05:53:00,
2013-01-01 01:02:00,58.0,56.0,30.18,SSE,149,0.0,0.0,94,0.00,,,0.00,,2013-01-01 06:02:00,
2013-01-01 01:12:00,58.0,56.0,30.18,SSE,149,0.0,0.0,94,0.00,,,0.00,,2013-01-01 06:12:00,
2013-01-01 01:22:00,59.0,57.0,30.17,SSE,149,0.0,0.0,94,0.00,,,0.00,,2013-01-01 06:22:00,
2013-01-01 01:32:00,59.0,57.0,30.17,SSE,149,0.0,0.0,94,0.00,,,0.00,,2013-01-01 06:32:00,
2013-01-01 01:42:00,59.0,57.0,30.17,SSE,149,0.0,0.0,94,0.00,,,0.00,,2013-01-01 06:42:00,
2013-01-01 01:52:00,60.0,58.0,30.17,SSE,149,0.0,0.0,93,0.00,,,0.00,,2013-01-01 06:52:00,
2013-01-01 02:02:00,60.0,58.0,30.17,SSE,149,0.0,0.0,93,0.00,,,0.00,,2013-01-01 07:02:00,
2013-01-01 02:12:00,60.0,58.0,30.17,SSE,149,0.0,0.0,92,0.00,,,0.00,,2013-01-01 07:12:00,
2013-01-01 02:22:00,60.0,58.0,30.17,SSE,149,0.0,0.0,92,0.00,,,0.00,,2013-01-01 07:22:00,
2013-01-01 02:32:00,60.0,57.0,30.17,SSE,149,0.0,0.0,91,0.00,,,0.00,,2013-01-01 07:32:00,
2013-01-01 02:42:00,60.0,57.0,30.17,SSE,149,0.0,0.0,91,0.00,,,0.00,,2013-01-01 07:42:00,
2013-01-01 02:53:00,61.0,58.0,30.16,SSE,149,0.0,0.0,90,0.00,,,0.00,,2013-01-01 07:53:00,
2013-01-01 03:02:00,61.0,58.0,30.16,SSE,149,0.0,0.0,90,0.00,,,0.00,,2013-01-01 08:02:00,
2013-01-01 03:12:00,61.0,58.0,30.16,SSE,149,0.0,0.0,90,0.00,,,0.00,,2013-01-01 08:12:00,
2013-01-01 03:22:00,61.0,58.0,30.16,SSE,149,0.0,0.0,90,0.00,,,0.00,,2013-01-01 08:22:00,
2013-01-01 03:32:00,61.0,58.0,30.16,SSE,149,0.0,1.0,90,0.00,,,0.00,,2013-01-01 08:32:00,
2013-01-01 03:42:00,61.0,58.0,30.16,SSE,149,0.0,1.0,90,0.00,,,0.00,,2013-01-01 08:42:00,
2013-01-01 03:53:00,61.0,58.0,30.16,SSE,149,0.0,1.0,90,0.00,,,0.00,,2013-01-01 08:53:00,
2013-01-01 04:02:00,61.0,58.0,30.15,SSE,149,0.0,1.0,90,0.00,,,0.00,,2013-01-01 09:02:00,
2013-01-01 04:12:00,61.0,58.0,30.15,SSE,149,0.0,1.0,90,0.00,,,0.00,,2013-01-01 09:12:00,
2013-01-01 04:22:00,61.0,58.0,30.15,SSE,149,0.0,0.0,90,0.00,,,0.00,,2013-01-01 09:22:00,
2013-01-01 04:32:00,61.0,58.0,30.14,SSE,149,0.0,0.0,90,0.00,,,0.00,,2013-01-01 09:32:00,
2013-01-01 04:42:00,61.0,58.0,30.14,SSE,149,0.0,0.0,90,0.00,,,0.00,,2013-01-01 09:42:00,
2013-01-01 04:52:00,61.0,58.0,30.14,SSE,149,0.0,0.0,90,0.00,,,0.00,,2013-01-01 09:52:00,
2013-01-01 05:02:00,61.0,58.0,30.14,SSE,149,0.0,0.0,90,0.00,,,0.00,,2013-01-01 10:02:00,
2013-01-01 05:12:00,61.0,58.0,30.14,SSE,149,0.0,0.0,91,0.00,,,0.00,,2013-01-01 10:12:00,
2013-01-01 05:22:00,61.0,58.0,30.14,SSE,149,0.0,0.0,91,0.00,,,0.00,,2013-01-01 10:22:00,
2013-01-01 05:33:00,61.0,58.0,30.14,SSE,149,0.0,0.0,91,0.00,,,0.00,,2013-01-01 10:33:00,
2013-01-01 05:42:00,61.0,58.0,30.14,SSE,149,0.0,0.0,91,0.00,,,0.00,,2013-01-01 10:42:00,
2013-01-01 05:53:00,61.0,58.0,30.13,SSE,149,0.0,0.0,91,0.00,,,0.00,,2013-01-01 10:53:00,
2013-01-01 06:02:00,61.0,58.0,30.13,SSE,149,0.0,1.0,91,0.00,,,0.00,,2013-01-01 11:02:00,
2013-01-01 06:12:00,61.0,58.0,30.13,SSE,149,0.0,1.0,91,0.00,,,0.00,,2013-01-01 11:12:00,
2013-01-01 06:23:00,61.0,58.0,30.12,SSE,149,0.0,0.0,90,0.00,,,0.00,,2013-01-01 11:23:00,
2013-01-01 06:33:00,61.0,58.0,30.12,SSE,149,0.0,0.0,90,0.00,,,0.00,,2013-01-01 11:33:00,
2013-01-01 06:42:00,61.0,58.0,30.12,SSE,149,0.0,0.0,90,0.00,,,0.00,,2013-01-01 11:42:00,
2013-01-01 06:53:00,60.0,57.0,30.12,SSE,149,0.0,0.0,90,0.00,,,0.00,,2013-01-01 11:53:00,
2013-01-01 07:02:00,60.0,57.0,30.11,SSE,149,0.0,0.0,91,0.00,,,0.00,,2013-01-01 12:02:00,
2013-01-01 07:12:00,60.0,57.0,30.11,SSE,149,0.0,0.0,91,0.00,,,0.00,,2013-01-01 12:12:00,
2013-01-01 07:22:00,59.0,56.0,30.12,SSE,149,0.0,0.0,91,0.00,,,0.00,,2013-01-01 12:22:00,
2013-01-01 07:33:00,58.0,56.0,30.12,SSE,149,0.0,0.0,92,0.00,,,0.00,,2013-01-01 12:33:00,
2013-01-01 07:43:00,58.0,56.0,30.12,SSE,149,0.0,0.0,92,0.00,,,0.00,,2013-01-01 12:43:00,
2013-01-01 07:53:00,57.0,55.0,30.13,SSE,149,0.0,0.0,92,0.00,,,0.00,,2013-01-01 12:53:00,
2013-01-01 08:03:00,57.0,55.0,30.13,SSE,149,0.0,0.0,93,0.00,,,0.00,,2013-01-01 13:03:00,
2013-01-01 08:12:00,57.0,55.0,30.13,SSE,149,0.0,0.0,93,0.00,,,0.00,,2013-01-01 13:12:00,
2013-01-01 08:22:00,58.0,56.0,30.13,SSE,149,0.0,0.0,94,0.00,,,0.00,,2013-01-01 13:22:00,
2013-01-01 08:33:00,58.0,56.0,30.13,SSE,149,0.0,0.0,94,0.00,,,0.00,,2013-01-01 13:33:00,
2013-01-01 08:43:00,58.0,56.0,30.13,SSE,149,0.0,0.0,94,0.00,,,0.00,,2013-01-01 13:43:00,
2013-01-01 08:53:00,60.0,59.0,30.13,SSE,149,0.0,0.0,95,0.00,,,0.00,,2013-01-01 13:53:00,
2013-01-01 09:02:00,64.0,61.0,30.14,SSE,149,0.0,0.0,90,0.00,,,0.00,,2013-01-01 14:02:00,
2013-01-01 09:12:00,64.0,61.0,30.14,SSE,149,0.0,0.0,90,0.00,,,0.00,,2013-01-01 14:12:00,
2013-01-01 09:22:00,68.0,63.0,30.14,SSE,149,0.0,0.0,83,0.00,,,0.00,,2013-01-01 14:22:00,
2013-01-01 09:32:00,70.0,62.0,30.14,SSE,167,0.0,3.0,77,0.00,,,0.00,,2013-01-01 14:32:00,
2013-01-01 09:42:00,70.0,62.0,30.14,SSE,167,0.0,3.0,77,0.00,,,0.00,,2013-01-01 14:42:00,
2013-01-01 09:53:00,73.0,63.0,30.14,WNW,299,0.0,3.0,72,0.00,,,0.00,,2013-01-01 14:53:00,
2013-01-01 10:03:00,74.0,64.0,30.14,South,176,0.0,4.0,71,0.00,,,0.00,,2013-01-01 15:03:00,
2013-01-01 10:12:00,75.0,63.0,30.14,SSE,157,2.0,8.0,67,0.00,,,0.00,,2013-01-01 15:12:00,
2013-01-01 10:22:00,75.0,63.0,30.14,SSE,157,2.0,8.0,67,0.00,,,0.00,,2013-01-01 15:22:00,
2013-01-01 10:33:00,76.0,63.0,30.14,South,177,0.0,8.0,65,0.00,,,0.00,,2013-01-01 15:33:00,
2013-01-01 10:42:00,76.0,63.0,30.14,South,177,0.0,8.0,65,0.00,,,0.00,,2013-01-01 15:42:00,
2013-01-01 10:53:00,77.0,63.0,30.13,East,80,3.0,7.0,62,0.00,,,0.00,,2013-01-01 15:53:00,
2013-01-01 11:02:00,77.0,63.0,30.13,ESE,103,4.0,7.0,63,0.00,,,0.00,,2013-01-01 16:02:00,
2013-01-01 11:12:00,77.0,63.0,30.13,ESE,103,4.0,7.0,63,0.00,,,0.00,,2013-01-01 16:12:00,
2013-01-01 11:22:00,78.0,63.0,30.12,South,175,2.0,6.0,60,0.00,,,0.00,,2013-01-01 16:22:00,
2013-01-01 11:33:00,78.0,63.0,30.11,East,88,10.0,10.0,60,0.00,,,0.00,,2013-01-01 16:33:00,
2013-01-01 11:42:00,78.0,63.0,30.11,East,88,10.0,10.0,60,0.00,,,0.00,,2013-01-01 16:42:00,
2013-01-01 11:53:00,78.0,63.0,30.11,ESE,123,5.0,7.0,61,0.00,,,0.00,,2013-01-01 16:53:00,
2013-01-01 12:02:00,78.0,63.0,30.10,SSE,155,5.0,10.0,60,0.00,,,0.00,,2013-01-01 17:02:00,
2013-01-01 12:12:00,78.0,63.0,30.10,SSE,155,5.0,10.0,60,0.00,,,0.00,,2013-01-01 17:12:00,
2013-01-01 12:22:00,78.0,62.0,30.09,SE,137,5.0,10.0,59,0.00,,,0.00,,2013-01-01 17:22:00,
2013-01-01 12:33:00,78.0,62.0,30.09,SSE,157,4.0,12.0,59,0.00,,,0.00,,2013-01-01 17:33:00,
2013-01-01 12:43:00,78.0,62.0,30.09,SSE,157,4.0,12.0,59,0.00,,,0.00,,2013-01-01 17:43:00,
2013-01-01 12:53:00,79.0,63.0,30.09,ESE,110,6.0,8.0,59,0.00,,,0.00,,2013-01-01 17:53:00,
2013-01-01 13:03:00,79.0,62.0,30.08,SSE,153,6.0,9.0,57,0.00,,,0.00,,2013-01-01 18:03:00,
2013-01-01 13:12:00,79.0,62.0,30.08,SSE,153,6.0,9.0,57,0.00,,,0.00,,2013-01-01 18:12:00,
2013-01-01 13:23:00,80.0,64.0,30.06,ESE,121,3.0,9.0,58,0.00,,,0.00,,2013-01-01 18:23:00,
2013-01-01 13:33:00,80.0,64.0,30.06,SSE,158,4.0,10.0,58,0.00,,,0.00,,2013-01-01 18:33:00,
2013-01-01 13:42:00,80.0,64.0,30.06,SSE,158,4.0,10.0,58,0.00,,,0.00,,2013-01-01 18:42:00,
2013-01-01 13:53:00,80.0,64.0,30.06,SSE,158,4.0,10.0,58,0.00,,,0.00,,2013-01-01 18:53:00,
2013-01-01 14:02:00,80.0,64.0,30.04,SSW,198,2.0,10.0,58,0.00,,,0.00,,2013-01-01 19:02:00,
2013-01-01 14:12:00,80.0,64.0,30.04,SSW,198,2.0,10.0,58,0.00,,,0.00,,2013-01-01 19:12:00,
2013-01-01 14:22:00,81.0,64.0,30.03,SSW,193,1.0,7.0,56,0.00,,,0.00,,2013-01-01 19:22:00,
2013-01-01 14:33:00,81.0,64.0,30.03,SSE,163,1.0,7.0,56,0.00,,,0.00,,2013-01-01 19:33:00,
2013-01-01 14:42:00,81.0,64.0,30.03,SSE,163,1.0,7.0,56,0.00,,,0.00,,2013-01-01 19:42:00,
2013-01-01 14:53:00,81.0,64.0,30.03,South,187,1.0,10.0,56,0.00,,,0.00,,2013-01-01 19:53:00,
2013-01-01 15:02:00,80.0,64.0,30.03,SE,127,3.0,10.0,58,0.00,,,0.00,,2013-01-01 20:02:00,
2013-01-01 15:12:00,80.0,64.0,30.03,SE,127,3.0,10.0,58,0.00,,,0.00,,2013-01-01 20:12:00,
2013-01-01 15:23:00,80.0,64.0,30.03,West,260,2.0,10.0,58,0.00,,,0.00,,2013-01-01 20:23:00,
2013-01-01 15:32:00,81.0,64.0,30.02,SW,232,1.0,4.0,57,0.00,,,0.00,,2013-01-01 20:32:00,
2013-01-01 15:42:00,81.0,64.0,30.02,SW,232,1.0,4.0,57,0.00,,,0.00,,2013-01-01 20:42:00,
2013-01-01 15:52:00,81.0,63.0,30.03,SE,132,2.0,4.0,55,0.00,,,0.00,,2013-01-01 20:52:00,
2013-01-01 16:03:00,81.0,64.0,30.03,South,191,1.0,4.0,57,0.00,,,0.00,,2013-01-01 21:03:00,
2013-01-01 16:13:00,79.0,65.0,30.03,SE,128,0.0,6.0,62,0.00,,,0.00,,2013-01-01 21:13:00,
2013-01-01 16:22:00,79.0,65.0,30.03,SE,128,0.0,6.0,62,0.00,,,0.00,,2013-01-01 21:22:00,
2013-01-01 16:33:00,79.0,65.0,30.03,SE,144,1.0,6.0,62,0.00,,,0.00,,2013-01-01 21:33:00,
2013-01-01 16:42:00,79.0,65.0,30.03,SE,144,1.0,6.0,62,0.00,,,0.00,,2013-01-01 21:42:00,
2013-01-01 16:53:00,78.0,65.0,30.03,WSW,245,2.0,4.0,64,0.00,,,0.00,,2013-01-01 21:53:00,
2013-01-01 17:03:00,77.0,64.0,30.03,WNW,286,0.0,4.0,65,0.00,,,0.00,,2013-01-01 22:03:00,
2013-01-01 17:12:00,77.0,64.0,30.03,WNW,286,0.0,4.0,65,0.00,,,0.00,,2013-01-01 22:12:00,
2013-01-01 17:22:00,77.0,65.0,30.03,SW,217,0.0,4.0,66,0.00,,,0.00,,2013-01-01 22:22:00,
2013-01-01 17:33:00,76.0,65.0,30.03,South,173,0.0,4.0,69,0.00,,,0.00,,2013-01-01 22:33:00,
2013-01-01 17:42:00,76.0,65.0,30.03,South,173,0.0,4.0,69,0.00,,,0.00,,2013-01-01 22:42:00,
2013-01-01 17:52:00,74.0,64.0,30.03,South,189,0.0,1.0,72,0.00,,,0.00,,2013-01-01 22:52:00,
2013-01-01 18:03:00,74.0,65.0,30.03,South,189,0.0,1.0,74,0.00,,,0.00,,2013-01-01 23:03:00,
2013-01-01 18:12:00,74.0,65.0,30.03,South,189,0.0,1.0,74,0.00,,,0.00,,2013-01-01 23:12:00,
2013-01-01 18:22:00,72.0,64.0,30.03,South,189,0.0,0.0,77,0.00,,,0.00,,2013-01-01 23:22:00,
2013-01-01 18:32:00,71.0,64.0,30.03,South,189,0.0,0.0,78,0.00,,,0.00,,2013-01-01 23:32:00,
2013-01-01 18:42:00,71.0,64.0,30.03,South,189,0.0,0.0,78,0.00,,,0.00,,2013-01-01 23:42:00,
2013-01-01 18:53:00,68.0,62.0,30.03,South,189,0.0,0.0,81,0.00,,,0.00,,2013-01-01 23:53:00,
2013-01-01 19:02:00,68.0,63.0,30.03,South,189,0.0,0.0,83,0.00,,,0.00,,2013-01-02 00:02:00,
2013-01-01 19:12:00,68.0,63.0,30.03,South,189,0.0,0.0,83,0.00,,,0.00,,2013-01-02 00:12:00,
2013-01-01 19:22:00,66.0,61.0,30.04,South,189,0.0,0.0,85,0.00,,,0.00,,2013-01-02 00:22:00,
2013-01-01 19:32:00,65.0,61.0,30.04,South,189,0.0,0.0,86,0.00,,,0.00,,2013-01-02 00:32:00,
2013-01-01 19:42:00,65.0,61.0,30.04,South,189,0.0,0.0,86,0.00,,,0.00,,2013-01-02 00:42:00,
2013-01-01 19:53:00,64.0,60.0,30.04,South,189,0.0,0.0,87,0.00,,,0.00,,2013-01-02 00:53:00,
2013-01-01 20:02:00,64.0,60.0,30.05,South,189,0.0,0.0,88,0.00,,,0.00,,2013-01-02 01:02:00,
2013-01-01 20:12:00,64.0,60.0,30.05,South,189,0.0,0.0,88,0.00,,,0.00,,2013-01-02 01:12:00,
2013-01-01 20:22:00,63.0,60.0,30.05,South,189,0.0,0.0,89,0.00,,,0.00,,2013-01-02 01:22:00,
2013-01-01 20:32:00,62.0,59.0,30.05,South,189,0.0,0.0,90,0.00,,,0.00,,2013-01-02 01:32:00,
2013-01-01 20:42:00,62.0,59.0,30.05,South,189,0.0,0.0,90,0.00,,,0.00,,2013-01-02 01:42:00,
2013-01-01 20:52:00,62.0,59.0,30.05,South,189,0.0,0.0,90,0.00,,,0.00,,2013-01-02 01:52:00,
2013-01-01 21:02:00,61.0,58.0,30.06,South,189,0.0,0.0,91,0.00,,,0.00,,2013-01-02 02:02:00,
2013-01-01 21:12:00,61.0,58.0,30.06,South,189,0.0,0.0,91,0.00,,,0.00,,2013-01-02 02:12:00,
2013-01-01 21:22:00,61.0,58.0,30.06,South,189,0.0,0.0,91,0.00,,,0.00,,2013-01-02 02:22:00,
2013-01-01 21:32:00,61.0,59.0,30.06,South,189,0.0,0.0,92,0.00,,,0.00,,2013-01-02 02:32:00,
2013-01-01 21:42:00,61.0,59.0,30.06,South,189,0.0,0.0,92,0.00,,,0.00,,2013-01-02 02:42:00,
2013-01-01 21:53:00,61.0,59.0,30.06,South,189,0.0,0.0,93,0.00,,,0.00,,2013-01-02 02:53:00,
2013-01-01 22:02:00,61.0,59.0,30.06,South,189,0.0,0.0,93,0.00,,,0.00,,2013-01-02 03:02:00,
2013-01-01 22:12:00,61.0,59.0,30.06,South,189,0.0,0.0,93,0.00,,,0.00,,2013-01-02 03:12:00,
2013-01-01 22:22:00,61.0,59.0,30.06,South,189,0.0,0.0,93,0.00,,,0.00,,2013-01-02 03:22:00,
2013-01-01 22:32:00,61.0,59.0,30.06,South,189,0.0,0.0,93,0.00,,,0.00,,2013-01-02 03:32:00,
2013-01-01 22:42:00,61.0,59.0,30.06,South,189,0.0,0.0,93,0.00,,,0.00,,2013-01-02 03:42:00,
2013-01-01 22:53:00,61.0,59.0,30.06,South,189,0.0,0.0,93,0.00,,,0.00,,2013-01-02 03:53:00,
2013-01-01 23:02:00,61.0,59.0,30.06,South,189,0.0,0.0,93,0.00,,,0.00,,2013-01-02 04:02:00,
2013-01-01 23:12:00,61.0,59.0,30.06,South,189,0.0,0.0,93,0.00,,,0.00,,2013-01-02 04:12:00,
2013-01-01 23:22:00,61.0,59.0,30.05,South,189,0.0,0.0,93,0.00,,,0.00,,2013-01-02 04:22:00,
2013-01-01 23:32:00,61.0,59.0,30.05,South,189,0.0,0.0,93,0.00,,,0.00,,2013-01-02 04:32:00,
2013-01-01 23:42:00,61.0,59.0,30.05,South,189,0.0,0.0,93,0.00,,,0.00,,2013-01-02 04:42:00,
2013-01-01 23:52:00,61.0,59.0,30.05,South,189,0.0,0.0,93,0.00,,,0.00,,2013-01-02 04:52:00,